Dewpoint
69 68 68 70 71 72 72 72 70 69 68 67 69 69 71 71 72 72 73 73 74 74 74 74 74 74 74 74 73 73 72 73 72 72 73 72 71 71 71 72 72 71 70
68 67 66 68 70 71 72 71 70 69 69 70 68 68 69 71 72 72 71 73 74 74 74 74 74 74 74 75 74 74 73 73 74 73 72 73 73 73 73 72 72 72 72
69 69 68 68 70 71 71 70 70 69 69 70 70 70 70 70 70 72 71 72 71 74 74 74 74 75 74 74 75 75 75 74 74 74 73 73 74 73 73 73 73 73 73
70 70 68 69 70 70 70 69 68 67 67 67 68 70 71 72 72 72 72 72 71 71 72 75 74 74 74 74 74 75 75 75 73 74 74 74 73 73 73 73 73 73 72
71 70 69 69 69 69 69 68 68 67 67 68 67 68 69 70 71 70 71 71 72 72 72 73 74 74 74 73 73 74 74 74 74 73 73 72 72 72 71 72 72 71 72
71 70 70 68 69 70 70 69 68 68 68 68 67 70 71 70 70 71 70 71 72 72 73 73 73 73 74 73 73 73 73 73 73 74 73 72 72 72 71 71 72 72 72
70 69 70 69 69 69 69 70 70 68 68 68 69 69 68 68 68 69 70 70 71 71 72 73 73 73 73 73 73 73 72 72 73 73 72 71 71 71 71 71 72 71 71
70 70 69 69 69 69 69 70 70 68 68 69 68 67 65 64 66 69 69 70 70 71 71 71 72 72 72 72 72 72 72 72 71 71 71 70 70 70 70 70 71 71 71
70 70 70 70 70 70 69 70 70 69 68 69 69 67 63 61 65 68 68 68 69 69 70 70 70 70 71 72 72 72 71 71 70 71 70 70 70 70 70 71 71 71 71
70 71 70 70 70 70 69 69 69 69 68 67 68 69 67 66 63 62 67 67 68 68 69 69 69 69 68 70 71 71 71 70 71 70 70 70 70 70 71 71 70 70 70
69 69 69 70 70 70 70 69 70 69 69 68 68 67 68 67 66 64 62 65 66 66 68 68 69 69 69 70 71 71 70 71 71 71 70 71 71 70 70 69 69 69 69
68 69 69 69 69 69 69 70 70 70 69 69 68 68 67 66 66 65 64 64 64 64 65 66 67 67 69 70 70 70 69 69 69 69 69 69 69 68 68 68 67 66 66
67 68 69 68 69 69 70 69 69 69 68 68 68 68 68 68 67 66 65 64 63 64 64 65 65 66 66 67 68 68 68 67 66 66 66 66 66 66 65 65 66 67 67
67 67 67 68 69 69 68 68 68 68 68 68 67 68 68 69 68 67 66 64 62 63 63 63 63 64 65 66 66 66 65 65 64 64 64 64 63 63 63 63 65 66 65
66 67 67 68 67 67 66 67 66 66 67 67 67 68 68 68 69 68 68 65 65 60 60 62 61 63 64 64 64 64 64 63 63 63 62 62 62 62 61 62 65 65 65
66 66 66 67 66 65 66 66 65 65 65 65 65 66 67 68 69 68 68 67 66 63 60 62 62 62 62 62 63 62 63 61 61 61 61 61 60 60 61 61 64 64 64
65 65 66 66 65 64 64 64 64 64 64 64 64 65 66 67 68 68 67 67 66 64 59 59 60 61 60 58 57 58 59 60 59 59 59 59 60 59 59 61 62 62 62
65 65 65 65 65 64 63 63 62 62 62 62 63 64 65 65 65 66 66 65 64 63 61 58 59 58 58 58 57 56 56 56 57 57 58 58 59 59 58 58 58 57 57
65 65 65 65 64 63 62 61 61 61 61 61 62 63 63 63 63 63 63 62 62 62 61 59 57 58 58 58 57 56 56 56 56 57 57 57 57 57 57 56 55 54 53
64 64 64 65 63 63 62 59 60 60 60 60 61 62 62 62 62 62 62 62 61 60 60 58 57 57 57 57 58 56 54 55 54 54 55 56 56 56 56 56 55 54 52
64 64 63 63 63 63 58 58 59 59 59 59 60 62 63 62 61 60 61 61 61 59 58 58 57 57 56 56 56 56 55 54 54 54 53 54 54 54 55 55 55 54 52
64 63 62 61 61 62 59 58 58 58 58 58 59 59 60 61 61 60 59 60 61 59 59 58 57 57 56 57 56 55 54 54 53 55 54 53 54 53 52 52 54 53 52
64 63 62 60 60 61 58 58 58 57 58 57 57 57 58 58 60 60 59 59 59 58 59 60 59 58 57 58 57 55 56 57 57 55 55 56 55 54 54 53 55 54 52
65 64 62 59 58 59 56 56 59 59 59 59 56 55 57 57 58 58 58 58 57 58 59 57 59 58 59 59 58 58 58 58 57 56 57 56 56 56 55 54 54 54 52
66 63 62 61 58 57 54 54 58 59 58 59 55 52 54 55 52 53 56 53 52 51 52 54 54 54 55 56 57 57 57 57 57 57 56 58 56 56 54 54 53 55 52
64 65 62 60 59 59 53 52 56 57 57 56 55 53 51 52 48 47 51 48 49 47 48 50 50 50 52 53 54 56 56 56 54 53 55 56 54 54 54 53 52 52 53
Lifted_Index
-3 -3 -3 -3 -3 -3 -3 -3 -3 -2 -1 -1 -1 -2 -2 -2 -2 -2 -2 -3 -3 -4 -4 -4 -4 -4 -4 -4 -4 -4 -3 -3 -3 -2 -2 -2 -2 -2 -2 -2 -2 -2 -1
-2 -2 -3 -3 -3 -3 -3 -3 -2 -1 -0 -0 -1 -1 -2 -2 -2 -2 -2 -2 -3 -4 -4 -4 -4 -4 -4 -4 -4 -4 -4 -4 -3 -3 -3 -3 -3 -2 -2 -2 -2 -2 -2
-2 -1 -1 -2 -2 -2 -2 -2 -1 -0 0 0 0 -0 -1 -2 -2 -2 -2 -2 -3 -3 -4 -4 -4 -4 -4 -4 -4 -4 -4 -4 -4 -3 -3 -3 -3 -3 -3 -2 -2 -2 -2
-1 -1 -1 -1 -2 -2 -1 -1 -0 -0 0 1 1 0 -1 -1 -2 -2 -2 -2 -2 -3 -3 -4 -3 -3 -3 -3 -4 -4 -4 -4 -4 -3 -3 -3 -2 -2 -2 -2 -2 -2 -1
-1 -1 -1 -1 -1 -1 -1 -0 -0 -0 0 0 1 0 -1 -1 -2 -2 -2 -2 -3 -3 -3 -3 -3 -3 -3 -3 -3 -3 -4 -4 -4 -3 -3 -2 -2 -2 -1 -1 -1 -1 -1
-2 -1 -1 -0 -0 -0 -0 -0 -0 -0 -0 -0 -0 -1 -1 -1 -2 -2 -2 -2 -3 -3 -3 -3 -3 -3 -3 -3 -3 -3 -3 -3 -3 -3 -2 -2 -2 -1 -1 -1 -1 -1 -1
-1 -1 -0 0 1 0 -0 -0 -1 -1 -1 -1 -1 -1 -1 -1 -1 -2 -2 -2 -2 -2 -2 -2 -3 -3 -3 -3 -3 -3 -2 -2 -2 -2 -2 -1 -1 -1 -1 -1 -1 -1 -1
-1 -0 -0 0 0 0 -0 -1 -1 -1 -1 -1 -1 -1 -0 -0 -1 -1 -1 -1 -2 -2 -2 -2 -2 -2 -2 -2 -2 -2 -2 -2 -2 -2 -1 -1 -1 -1 -1 -1 -1 -1 -1
-1 -1 -1 -0 -0 -1 -1 -1 -2 -2 -2 -1 -1 -1 -0 0 -0 -0 -1 -1 -1 -2 -2 -2 -2 -2 -2 -2 -2 -2 -2 -1 -2 -1 -1 -1 -0 -1 -1 -1 -1 -1 -1
-1 -1 -1 -1 -1 -1 -2 -2 -2 -2 -2 -2 -1 -1 -1 -0 -0 -0 -0 -0 -1 -1 -1 -1 -1 -1 -1 -1 -2 -2 -1 -1 -1 -1 -1 -1 -0 -0 -1 -1 -1 -1 -1
-1 -1 -1 -1 -1 -2 -2 -2 -2 -2 -2 -1 -1 -1 -1 -1 -0 -0 0 0 0 -0 -1 -1 -1 -1 -0 -1 -1 -1 -1 -1 -1 -1 -1 -0 -0 -0 -0 0 0 0 0
-1 -1 -1 -1 -1 -2 -2 -2 -2 -2 -1 -1 -1 -1 -1 -1 -1 -0 -0 0 0 0 -0 -0 -0 -0 -0 -0 -0 -0 0 0 0 0 0 0 1 1 1 2 2 1 1
-1 -1 -1 -1 -1 -1 -1 -1 -1 -1 -1 -1 -1 -1 -1 -1 -1 -0 -0 0 1 1 0 0 0 0 1 1 1 1 1 1 1 2 2 2 2 3 3 3 3 2 2
-2 -1 -1 -1 -1 -1 -1 -1 -1 -1 -1 -1 -1 -1 -1 -1 -1 -0 0 0 1 1 1 1 1 1 2 2 2 2 2 2 3 3 3 3 4 4 5 5 4 3 3
-2 -2 -1 -1 -1 -1 -1 -1 -1 -1 -0 -0 -0 -0 -1 -1 -1 -1 -0 0 1 1 1 2 2 2 3 3 3 3 3 3 4 4 5 5 5 6 6 6 5 5 5
-1 -1 -1 -2 -2 -2 -1 -0 -0 -0 0 0 0 -0 -1 -1 -1 -1 -1 -0 0 1 1 2 2 3 3 3 3 4 4 4 5 5 6 6 7 7 7 7 7 6 6
-0 -0 -1 -1 -1 -1 0 1 1 1 1 1 1 0 -0 -0 -1 -1 -1 -0 0 1 1 2 2 3 3 3 4 4 4 5 5 6 6 7 8 8 9 8 8 8 7
-0 -0 -0 -0 -0 1 2 2 2 2 2 2 2 1 1 0 -0 -1 -1 -0 0 0 1 1 2 3 3 3 3 4 4 5 6 6 7 8 9 9 10 10 9 9 9
-0 -0 -0 0 1 1 2 3 4 3 3 3 2 2 2 1 1 -0 -0 -0 0 0 1 1 2 2 3 3 3 3 4 5 6 7 8 9 10 11 11 11 11 11 11
-0 -0 0 1 1 2 3 4 5 4 3 3 3 3 3 2 2 1 0 0 0 0 0 1 1 2 2 2 3 3 4 4 5 7 8 9 10 12 12 12 12 13 13
-0 -0 0 1 1 2 3 4 5 4 4 3 3 3 4 4 3 2 2 1 1 1 1 1 2 2 2 3 3 3 4 4 5 6 8 9 11 12 12 13 13 13 14
-0 -0 0 1 1 2 2 3 5 5 5 5 4 4 4 4 4 4 3 3 2 2 2 2 3 2 3 3 3 3 4 4 5 7 8 9 10 11 12 12 12 13 14
-0 0 0 1 1 2 2 3 4 5 6 6 5 5 4 5 5 5 4 4 3 3 3 3 3 3 3 4 4 4 5 5 6 7 8 8 9 10 10 11 11 11 12
0 0 0 1 1 1 2 3 4 5 5 5 5 5 5 5 5 5 5 5 4 4 4 4 4 4 4 5 5 5 6 6 6 7 8 7 7 8 8 9 9 9 10
0 1 1 1 1 1 2 2 3 4 4 5 5 5 6 5 5 5 5 5 5 5 5 5 5 6 6 6 6 6 6 6 6 7 7 7 7 7 7 7 7 7 7
1 1 1 1 1 1 1 2 3 4 4 4 5 5 6 6 5 5 6 5 5 5 5 5 6 8 8 7 6 6 6 6 6 6 7 6 6 6 6 6 6 6 6